Location: Unspecified
(0.0000°N, 0.0000°E)
Time: 04:01:50
(UTC+00:00)

Envisat - Pass Details

Date: 22 May 2017
Orbit: 764 x 766 km, 98.2° (Epoch: 19 September)

Event Time Altitude Azimuth Distance (km) Brightness Sun altitude
Exits shadow 20:25:37 15° 360° (N) 1,984 5.3 -34.5°
Drops below altitude 10° 20:26:25 10° 358° (N) 2,291 5.7 -34.7°
Sets 20:28:44 0° 355° (N) 3,214 6.6 -35.2°
